Location: Saluda
(35.2377°N, 82.3468°W)
Time: 05:31:12
(UTC+00:00)

Courier 1B Rocket - Pass Details

Date: 09 October 2022
Orbit: 920 x 1202 km, 28.2° (Epoch: 06 December)

Event Time Altitude Azimuth Distance (km) Brightness Sun altitude
Rises 01:11:51 0° 265° (W) 3,830 9.3 -26.9°
Reaches altitude 10° 01:14:49 10° 259° (WSW) 2,829 8.2 -27.5°
Maximum altitude 01:21:08 40° 191° (SSW) 1,401 5.7 -28.8°
Enters shadow 01:21:27 40° 184° (S) 1,404 5.7 -28.8°
Drops below altitude 10° 01:27:05 10° 124° (ESE) 2,661 - -30.0°
Sets 01:29:47 0° 117° (ESE) 3,580 - -30.5°
